Overview Statistics Trail Chart Weather Telemetry Raw packets
 

This is the latest recevied weather packets stored in our database for station/object K4KMJ. If no packets are shown the sender has not sent any weather packets the latest 10 day(s).

<< 20 21 22 23 24 25 26 >>
Time Temp. Humidity Pressure Rain* Wind** Luminosity Snow
1788529714 30.56° C 88% 1018 hPa 0 mm - 397 W/m² -
1788529414 30° C 90% 1017.8 hPa 0 mm - 389 W/m² -
1788529108 29.44° C 89% 1017.9 hPa 0 mm - 381 W/m² -
1788528804 30° C 89% 1018 hPa 0 mm - 371 W/m² -
1788528503 30.56° C 89% 1017.9 hPa 0 mm - 341 W/m² -
1788528198 30° C 90% 1017.7 hPa 0 mm - 286 W/m² -
1788527897 29.44° C 90% 1017.8 hPa 0 mm - 249 W/m² -
1788527594 29.44° C 92% 1017.5 hPa 0 mm - 206 W/m² -
1788527288 30° C 93% 1017.8 hPa 0 mm - 159 W/m² -
1788526988 28.89° C 93% 1017.4 hPa 0 mm - 146 W/m² -
1788526683 28.89° C 94% 1017.8 hPa 0 mm - 135 W/m² -
1788526379 28.89° C 94% 1017.7 hPa 0 mm - 134 W/m² -
1788526073 28.89° C 96% 1017.6 hPa 0 mm - 143 W/m² -
1788525770 28.33° C 97% 1017.7 hPa 0 mm - 153 W/m² -
1788525470 27.78° C 98% 1017.5 hPa 0 mm - 128 W/m² -
1788525165 27.78° C 99% 1017.4 hPa 0 mm - 116 W/m² -
1788524860 27.22° C 99% 1017.4 hPa 0 mm - 97 W/m² -
1788524559 27.22° C 99% 1017.4 hPa 0 mm - 91 W/m² -
1788524255 27.22° C 99% 1017.3 hPa 0 mm - 83 W/m² -
1788523951 27.22° C 99% 1017.2 hPa 0 mm - 75 W/m² -
1788523647 26.67° C 99% 1017.4 hPa 0 mm - 66 W/m² -
1788523343 26.11° C 99% 1017.4 hPa 0 mm - 58 W/m² -
1788523038 25.56° C 99% 1017.3 hPa 0 mm - 47 W/m² -
1788522738 25° C 99% 1017.5 hPa 0 mm - 33 W/m² -
1788522433 25° C 99% 1017.2 hPa 0 mm - 35 W/m² -

* Rain latest hour (hover to see other rain measurements)
** Current wind speed in m/s (hover to see current wind gust speed)